Hourly Data Report for August 08, 2004

All times are specified in Local Standard Time (LST). Add 1 hour to adjust for Daylight Saving Time where and when it is observed.

TORONTO CITY
ONTARIO

43°40'00.000" N
79°24'00.000" W
112.50 m
6158355
71508
XTO

Download Data

Hourly Data (August 2004)
Hourly Data Report for August 8, 2004
TIME Temp Definition
°C
Dew Point Definition
°C
Rel Hum Definition
%
Wind Dir Definition
10's deg

Wind Spd Definition
km/h
Visibility Definition
km
Stn Press Definition
kPa
Hmdx Definition


Wind Chill Definition


Weather Definition


00:00 17.4 11.0 66 LegendMM LegendMM LegendMM 100.27     LegendNANA
01:00 15.8 10.2 69 LegendMM LegendMM LegendMM 100.28     LegendNANA
02:00 14.6 10.4 76 LegendMM LegendMM LegendMM 100.26     LegendNANA
03:00 14.7 11.0 78 LegendMM LegendMM LegendMM 100.28     LegendNANA
04:00 15.4 11.3 77 LegendMM LegendMM LegendMM 100.32     LegendNANA
05:00 14.5 10.7 78 LegendMM LegendMM LegendMM 100.35     LegendNANA
06:00 15.3 11.7 79 LegendMM LegendMM LegendMM 100.38     LegendNANA
07:00 17.4 11.6 69 LegendMM LegendMM LegendMM 100.40     LegendNANA
08:00 18.1 11.6 66 LegendMM LegendMM LegendMM 100.40     LegendNANA
09:00 20.3 12.1 59 LegendMM LegendMM LegendMM 100.34     LegendNANA
10:00 22.3 14.3 61 LegendMM LegendMM LegendMM 100.32 26   LegendNANA
11:00 23.5 15.2 60 LegendMM LegendMM LegendMM 100.31 28   LegendNANA
12:00 24.8 15.5 56 LegendMM LegendMM LegendMM 100.27 29   LegendNANA
13:00 25.5 16.3 57 LegendMM LegendMM LegendMM 100.23 30   LegendNANA
14:00 24.1 14.5 55 LegendMM LegendMM LegendMM 100.24 28   LegendNANA
15:00 20.2 18.4 89 LegendMM LegendMM LegendMM 100.32 27   LegendNANA
16:00 19.6 16.6 83 LegendMM LegendMM LegendMM 100.33     LegendNANA
17:00 21.2 18.5 85 LegendMM LegendMM LegendMM 100.33 28   LegendNANA
18:00 21.3 19.0 87 LegendMM LegendMM LegendMM 100.33 28   LegendNANA
19:00 21.8 14.5 63 LegendMM LegendMM LegendMM 100.36 25   LegendNANA
20:00 20.2 13.3 65 LegendMM LegendMM LegendMM 100.42     LegendNANA
21:00 18.8 12.9 69 LegendMM LegendMM LegendMM 100.46     LegendNANA
22:00 18.2 12.9 71 LegendMM LegendMM LegendMM 100.48     LegendNANA
23:00 17.2 12.7 75 LegendMM LegendMM LegendMM 100.48     LegendNANA

Notes on Data Quality.

Legend

  • E = Estimated
  • M = Missing
  • NA = Not Available
Date modified: